Home > Weather > Springfield > Past weeks

Flag for USA Past Weather in Springfield, Illinois, USA — Yesterday and Last 2 Weeks

Now
64 °F

Passing clouds.


Feels Like: 64 °F
Forecast: 62 / 88 °F
Wind: No wind

Location: Capital Airport

Current Time: May 30, 2016 at 5:48:06 AM

Latest Report: May 30, 2016 at 4:52 AM


Visibility: 10 mi

Pressure: 30.03 "Hg

Humidity: 87%

Dew Point: 60 °F

Location of SpringfieldLocation

Past Weather in Springfield — Graph

°F

Springfield Temperature Yesterday

Maximum temperature yesterday: 86 °F (at 3:52 PM)
Minimum temperature yesterday: 65 °F (at 4:52 AM)
Average temperature yesterday: 76 °F

High & Low Weather Summary for the Past Weeks

 TemperatureHumidityPressure
High86 °F (May 22, 4:52 PM)94% (May 25, 4:52 AM)30.27 "Hg (May 25, 4:52 AM)
Low43 °F (May 18, 4:52 AM)20% (May 22, 4:52 PM)29.79 "Hg (May 27, 6:52 PM)
Average67 °F63%30.04 "Hg
* Reported May 15 3:52 AM — May 30 3:52 AM, Springfield, Weather by CustomWeather, © 2016

Note: Actual official high and low records may vary slightly from our data, if they occured in-between our weather recording intervals... More about our weather records

Advertising

Springfield Weather History for the Previous 24 Hours

Scroll right to see more
 ConditionsComfort  
Time TempWeatherWind HumidityBarometerVisibility
3:52 AM
Mon, May 30
64 °FClear.No wind87%30.03 "Hg10 mi
2:52 AM64 °FClear.No wind87%30.03 "Hg10 mi
1:52 AM65 °FClear.No wind87%30.02 "Hg10 mi
12:52 AM66 °FClear.No wind81%30.03 "Hg10 mi
11:52 PM
Sun, May 29
67 °FClear.No wind79%30.03 "Hg10 mi
10:52 PM68 °FClear.No wind76%30.03 "Hg10 mi
9:52 PM70 °FClear.No wind71%30.03 "Hg10 mi
8:52 PM72 °FSunny.No wind66%30.02 "Hg10 mi
7:52 PM80 °FSunny.3 mph47%30.02 "Hg10 mi
6:52 PM83 °FSunny.7 mph40%30.02 "Hg10 mi
5:52 PM85 °FSunny.10 mph35%30.02 "Hg10 mi
4:52 PM86 °FPassing clouds.16 mph35%30.04 "Hg10 mi
3:52 PM86 °FPassing clouds.12 mph32%30.05 "Hg10 mi
2:52 PM85 °FPassing clouds.14 mph35%30.05 "Hg10 mi
1:52 PM85 °FPassing clouds.15 mph37%30.06 "Hg10 mi
12:52 PM84 °FSunny.10 mph38%30.07 "Hg10 mi
11:52 AM83 °FSunny.12 mph44%30.07 "Hg10 mi
10:52 AM82 °FSunny.13 mph48%30.06 "Hg10 mi
9:52 AM79 °FSunny.13 mph54%30.06 "Hg10 mi
8:52 AM78 °FSunny.13 mph56%30.06 "Hg10 mi
7:52 AM73 °FSunny.8 mph71%30.05 "Hg10 mi
6:52 AM69 °FSunny.3 mph84%30.03 "Hg10 mi
5:52 AM66 °FClear.3 mph90%30.02 "Hg10 mi
Weather by CustomWeather, © 2016

See weather overviewHow to use our weather pages